$Date,$Time,DM0201B,DM0203B,DM0205B,DM0207B,DM0209B
11/08/98,00:00:01,0,0,0,0,0
11/08/98,00:05:01,552,182,-12,170,933
11/08/98,00:10:01,573,172,-12,180,933
11/08/98,00:15:01,436,182,-12,185,933
11/08/98,00:20:01,474,181,-12,166,933
11/08/98,00:25:01,475,188,-12,146,933
11/08/98,00:30:01,509,188,-12,141,933
11/08/98,00:35:01,438,192,-12,159,933
11/08/98,00:40:01,534,191,-12,187,933
11/08/98,00:45:01,387,191,-12,224,933
11/08/98,00:50:01,357,184,-12,248,935
11/08/98,00:55:01,579,196,-12,255,933
11/08/98,01:00:01,654,191,-12,262,933
11/08/98,01:05:01,460,180,-12,228,933
11/08/98,01:10:01,594,191,-11,227,933
11/08/98,01:15:01,512,188,-12,232,933
11/08/98,01:20:01,540,188,-11,239,933
11/08/98,01:25:01,518,188,-11,251,933
11/08/98,01:30:01,561,186,-11,258,933
11/08/98,01:35:01,543,183,-11,262,933
11/08/98,01:40:01,582,182,-11,257,933
11/08/98,01:45:01,639,182,-11,249,933
11/08/98,01:50:01,568,182,-11,234,933
11/08/98,01:55:01,636,182,-11,223,933
11/08/98,02:00:01,670,183,-12,209,933
11/08/98,02:05:01,607,183,-12,195,933
11/08/98,02:10:01,730,183,-12,184,933
11/08/98,02:15:01,624,184,-12,174,933
11/08/98,02:20:01,648,184,-12,170,933
11/08/98,02:25:01,698,184,-12,169,935
11/08/98,02:30:01,559,184,-12,171,935
11/08/98,02:35:01,655,184,-12,171,935
11/08/98,02:40:01,548,180,-12,173,935
11/08/98,02:45:01,648,180,-12,171,935
11/08/98,02:50:01,588,180,-12,176,935
11/08/98,02:55:01,570,180,-12,179,933
11/08/98,03:00:01,532,180,-12,180,935
11/08/98,03:05:01,571,180,-12,177,935
11/08/98,03:10:01,557,180,-12,179,935
11/08/98,03:15:01,607,180,-12,170,935
11/08/98,03:20:01,657,180,-12,165,935
11/08/98,03:25:01,630,190,-12,160,935
11/08/98,03:30:01,505,178,-12,158,935
11/08/98,03:35:01,558,178,-12,156,935
11/08/98,03:40:01,623,190,-12,152,935
11/08/98,03:45:01,528,177,-12,153,935
11/08/98,03:50:01,455,176,-12,150,935
11/08/98,03:55:01,646,187,-12,147,935
11/08/98,04:00:01,543,187,-12,145,935
11/08/98,04:05:01,438,191,-11,145,935
11/08/98,04:10:01,615,180,-12,143,935
11/08/98,04:15:01,465,180,-12,141,935
11/08/98,04:20:01,538,183,-12,129,937
11/08/98,04:25:01,497,184,-12,131,937
11/08/98,04:30:01,421,184,-12,127,937
11/08/98,04:35:01,516,184,-12,125,937
11/08/98,04:40:01,534,184,-12,125,937
11/08/98,04:45:01,648,184,-12,125,937
11/08/98,04:50:01,491,184,-12,125,937
11/08/98,04:55:01,708,185,-12,122,937
11/08/98,05:00:01,614,174,-12,122,937
11/08/98,05:05:01,499,174,-12,117,937
11/08/98,05:10:01,552,176,-12,119,937
11/08/98,05:15:01,553,176,-12,121,937
11/08/98,05:20:01,613,174,-12,119,937
11/08/98,05:25:01,597,174,-12,119,937
11/08/98,05:30:01,457,172,-12,117,937
11/08/98,05:35:01,602,182,-12,113,937
11/08/98,05:40:01,602,182,-12,111,937
11/08/98,05:45:01,508,172,-12,109,937
11/08/98,05:50:01,527,172,-12,107,937
11/08/98,05:55:01,663,182,-12,103,937
11/08/98,06:00:01,537,186,-12,103,937
11/08/98,06:05:01,580,181,-12,103,937
11/08/98,06:10:01,578,165,-12,99,937
11/08/98,06:15:01,572,177,-12,99,937
11/08/98,06:20:01,674,177,-12,99,935
11/08/98,06:25:01,675,177,-12,97,937
11/08/98,06:30:01,575,166,-12,97,937
11/08/98,06:35:01,635,176,-12,97,935
11/08/98,06:40:01,645,177,-12,95,935
11/08/98,06:45:01,646,176,-12,95,935
11/08/98,06:50:01,742,176,-12,93,935
11/08/98,06:55:01,693,176,-12,91,935
11/08/98,07:00:01,639,176,-12,89,935
11/08/98,07:05:01,734,176,-12,87,935
11/08/98,07:10:01,761,176,-12,89,935
11/08/98,07:15:01,688,176,-13,89,935
11/08/98,07:20:01,721,176,-13,89,935
11/08/98,07:25:01,707,176,-13,89,935
11/08/98,07:30:01,729,176,-13,89,935
11/08/98,07:35:01,702,176,-13,89,935
11/08/98,07:40:01,733,176,-13,89,935
11/08/98,07:45:01,704,176,-13,89,935
11/08/98,07:50:01,628,176,-13,89,935
11/08/98,07:55:01,731,176,-13,87,935
11/08/98,08:00:01,735,176,-13,84,935
11/08/98,08:05:01,681,176,-13,81,935
11/08/98,08:10:01,766,176,-13,83,935
11/08/98,08:15:01,665,176,-13,83,935
11/08/98,08:20:01,608,176,-13,83,935
11/08/98,08:25:01,658,176,-13,81,935
11/08/98,08:30:01,689,176,-13,80,935
11/08/98,08:35:01,723,176,-13,78,935
11/08/98,08:40:01,674,176,-13,76,935
11/08/98,08:45:01,600,183,-13,74,935
11/08/98,08:50:01,551,170,-13,74,935
11/08/98,08:55:01,582,180,-13,72,935
11/08/98,09:00:01,685,170,-13,70,935
11/08/98,09:05:01,732,170,-13,66,935
11/08/98,09:10:01,593,170,-13,64,935
11/08/98,09:15:01,643,170,-13,64,935
11/08/98,09:20:01,605,169,-13,60,935
11/08/98,09:25:01,731,169,-13,60,935
11/08/98,09:30:01,673,169,-13,58,935
11/08/98,09:35:01,705,178,-13,58,935
11/08/98,09:40:01,655,178,-13,56,935
11/08/98,09:45:01,559,169,-13,56,935
11/08/98,09:50:01,525,180,-13,54,935
11/08/98,09:55:01,746,180,-13,52,937
11/08/98,10:00:01,783,180,-12,50,937
11/08/98,10:05:01,692,180,-12,48,937
11/08/98,10:10:01,626,180,-12,48,937
11/08/98,10:15:01,628,170,-13,46,937
11/08/98,10:20:01,609,170,-13,46,937
11/08/98,10:25:01,573,170,-13,44,937
11/08/98,10:30:01,663,160,-13,44,937
11/08/98,10:35:01,639,171,-13,44,937
11/08/98,10:40:01,635,171,-13,46,937
11/08/98,10:45:01,603,171,-13,46,937
11/08/98,10:50:01,583,171,-13,46,937
11/08/98,10:55:01,525,171,-13,46,937
11/08/98,11:00:01,630,171,-13,48,937
11/08/98,11:05:01,613,171,-13,46,937
11/08/98,11:10:01,586,160,-13,46,937
11/08/98,11:15:01,530,171,-13,46,937
11/08/98,11:20:01,599,171,-13,46,937
11/08/98,11:25:01,617,171,-13,48,937
11/08/98,11:30:01,600,181,-13,46,937
11/08/98,11:35:01,588,182,-13,46,937
11/08/98,11:40:01,636,172,-13,46,937
11/08/98,11:45:01,696,172,-13,46,937
11/08/98,11:50:01,590,172,-13,46,937
11/08/98,11:55:01,636,172,-13,44,937
11/08/98,12:00:01,599,172,-13,44,937
11/08/98,12:05:01,684,182,-13,42,937
11/08/98,12:10:01,653,169,-13,40,937
11/08/98,12:15:01,676,177,-13,40,937
11/08/98,12:20:01,630,177,-13,40,937
11/08/98,12:25:01,641,177,-13,40,939
11/08/98,12:30:01,709,181,-13,40,939
11/08/98,12:35:01,706,181,-13,40,937
11/08/98,12:40:01,673,170,-13,40,939
11/08/98,12:45:01,673,180,-13,40,937
11/08/98,12:50:01,668,180,-13,40,937
11/08/98,12:55:01,653,180,-13,40,937
11/08/98,13:00:01,695,180,-13,42,937
11/08/98,13:05:01,699,180,-13,42,939
11/08/98,13:10:01,588,178,-13,42,937
11/08/98,13:15:01,688,178,-13,42,937
11/08/98,13:20:01,657,178,-13,44,937
11/08/98,13:25:01,685,178,-13,44,937
11/08/98,13:30:01,655,178,-13,44,937
11/08/98,13:35:01,690,178,-13,46,937
11/08/98,13:40:01,658,178,-13,48,939
11/08/98,13:45:01,672,178,-13,48,939
11/08/98,13:50:01,629,178,-13,48,939
11/08/98,13:55:01,626,178,-13,48,939
11/08/98,14:00:01,611,178,-13,48,939
11/08/98,14:05:01,587,178,-13,48,939
11/08/98,14:10:01,664,168,-13,48,939
11/08/98,14:15:01,643,167,-13,48,939
11/08/98,14:20:01,667,173,-13,50,939
11/08/98,14:25:01,640,173,-13,50,939
11/08/98,14:30:01,614,173,-13,52,939
11/08/98,14:35:01,605,173,-13,54,939
11/08/98,14:40:01,565,173,-13,56,939
11/08/98,14:45:01,610,173,-13,56,939
11/08/98,14:50:01,538,173,-13,58,939
11/08/98,14:55:01,559,173,-13,60,939
11/08/98,15:00:01,524,173,-13,60,939
11/08/98,15:05:01,537,173,-13,64,939
11/08/98,15:10:01,547,173,-13,68,939
11/08/98,15:15:01,560,173,-13,84,939
11/08/98,15:20:01,539,173,-13,85,939
11/08/98,15:25:01,555,173,-13,95,939
11/08/98,15:30:01,531,173,-13,99,939
11/08/98,15:35:01,515,172,-13,102,939
11/08/98,15:40:01,496,172,-13,113,939
11/08/98,15:45:01,532,172,-13,143,939
11/08/98,15:50:01,534,172,-13,162,939
11/08/98,15:55:01,521,172,-13,175,939
11/08/98,16:00:01,582,172,-13,185,939
11/08/98,16:05:01,482,172,-13,185,939
11/08/98,16:10:01,490,172,-13,189,939
11/08/98,16:15:01,553,173,-13,184,939
11/08/98,16:20:01,578,173,-13,190,937
11/08/98,16:25:01,510,163,-13,184,937
11/08/98,16:30:01,561,174,-13,188,937
11/08/98,16:35:01,561,174,-13,166,937
11/08/98,16:40:01,555,174,-13,164,939
11/08/98,16:45:01,500,163,-13,165,939
11/08/98,16:50:01,548,174,-13,179,939
11/08/98,16:55:01,507,172,-13,188,939
11/08/98,17:00:01,526,172,-13,186,939
11/08/98,17:05:01,547,172,-13,186,939
11/08/98,17:10:01,524,172,-13,194,937
11/08/98,17:15:01,556,162,-13,196,937
11/08/98,17:20:01,529,162,-13,198,937
11/08/98,17:25:01,503,162,-13,198,937
11/08/98,17:30:01,510,162,-13,202,937
11/08/98,17:35:01,479,174,-12,206,937
11/08/98,17:40:01,506,174,-12,210,939
11/08/98,17:45:01,564,184,-12,212,939
11/08/98,17:50:01,445,184,-12,216,939
11/08/98,17:55:01,579,184,-12,220,939
11/08/98,18:00:01,508,174,-12,222,939
11/08/98,18:05:01,481,174,-12,226,939
11/08/98,18:10:01,444,174,-12,232,939
11/08/98,18:15:01,474,175,-12,234,939
11/08/98,18:20:01,522,173,-12,148,939
11/08/98,18:25:01,546,173,-12,239,939
11/08/98,18:30:01,546,173,-13,216,939
11/08/98,18:35:01,522,163,-13,138,937
11/08/98,18:40:01,574,174,-13,84,937
11/08/98,18:45:01,602,173,-13,107,937
11/08/98,18:50:01,539,168,-13,252,937
11/08/98,18:55:01,613,168,-13,255,937
11/08/98,19:00:01,497,168,-13,259,937
11/08/98,19:05:01,555,168,-13,261,937
11/08/98,19:10:01,578,168,-13,265,937
11/08/98,19:15:01,490,168,-13,171,937
11/08/98,19:20:01,536,168,-13,258,937
11/08/98,19:25:01,500,168,-13,274,937
11/08/98,19:30:01,514,168,-13,276,937
11/08/98,19:35:01,509,168,-12,278,937
11/08/98,19:40:01,529,168,-12,284,937
11/08/98,19:45:01,534,168,-12,284,937
11/08/98,19:50:01,500,168,-12,283,937
11/08/98,19:55:01,534,168,-12,287,937
11/08/98,20:00:01,559,166,-12,289,937
11/08/98,20:05:01,542,176,-12,293,937
11/08/98,20:10:01,,,,,
11/08/98,20:15:01,,,,,
11/08/98,20:20:01,,,,,
11/08/98,20:25:01,,,,,
11/08/98,20:30:01,,,,,
11/08/98,20:35:01,,,,,
11/08/98,20:40:01,,,,,
11/08/98,20:45:01,,,,,
11/08/98,20:50:01,,,,,
11/08/98,20:55:01,,,,,
11/08/98,21:00:01,,,,,
11/08/98,21:05:01,,,,,
11/08/98,21:10:01,,,,,
11/08/98,21:15:01,,,,,
11/08/98,21:20:01,,,,,
11/08/98,21:25:01,,,,,
11/08/98,21:30:01,,,,,
11/08/98,21:35:01,,,,,
11/08/98,21:40:01,,,,,
11/08/98,21:45:01,,,,,
11/08/98,21:50:01,,,,,
11/08/98,21:55:01,,,,,
11/08/98,22:00:01,,,,,
11/08/98,22:05:01,,,,,
11/08/98,22:10:01,,,,,
11/08/98,22:15:01,,,,,
11/08/98,22:20:01,,,,,
11/08/98,22:25:01,,,,,
11/08/98,22:30:01,,,,,
11/08/98,22:35:01,,,,,
11/08/98,22:40:01,,,,,
11/08/98,22:45:01,,,,,
11/08/98,22:50:01,,,,,
11/08/98,22:55:01,,,,,
11/08/98,23:00:01,,,,,
11/08/98,23:05:01,,,,,
11/08/98,23:10:01,,,,,
11/08/98,23:15:01,,,,,
11/08/98,23:20:01,,,,,
11/08/98,23:25:01,,,,,
11/08/98,23:30:01,,,,,
11/08/98,23:35:01,,,,,
11/08/98,23:40:01,,,,,
11/08/98,23:45:01,,,,,
11/08/98,23:50:01,,,,,
11/08/98,23:55:01,,,,,
11/09/98,00:00:01,,,,,
